Weather History for KCKC - March, 2014

Change the Weather History Date:

Sunday, March 16, 2014

  Actual Average Record
Temperature  
Mean Temperature -4 °F -  
Max Temperature 15 °F 29 °F 57 °F (2003)
Min Temperature -23 °F 12 °F -23 °F (2014)
Degree Days  
Heating Degree Days 69    
Moisture  
Dew Point -8 °F    
Average Humidity 65    
Maximum Humidity 85    
Minimum Humidity 35    
Precipitation  
Precipitation 0.00 in - - ()
Sea Level Pressure  
Sea Level Pressure 30.26 in    
Wind  
Wind Speed 4 mph (SSW)    
Max Wind Speed 10 mph    
Max Gust Speed -    
Visibility 10 miles    
Events Snow    
Averages and records for this station are not official NWS values.
T = Trace of Precipitation, MM = Missing Value Source: NWS Daily Summary

Daily Weather History Graph

Daily Weather History Graph

Search for Another Location

Airport or City:

Trip Planner

Search our weather history database for the weather conditions in past years. The results will help you decide how hot, cold, wet, or windy it might be!

Date:

Astronomy

Mar. 16, 2014 Rise Set
Actual Time 7:12 AM CDT 7:08 PM CDT
Civil Twilight 6:41 AM CDT 7:39 PM CDT
Nautical Twilight 6:05 AM CDT 8:15 PM CDT
Astronomical Twilight 5:28 AM CDT 8:52 PM CDT
Moon 7:29 PM CDT (3/16) 6:54 AM CDT (3/16)
Length of Visible Light 12h 57m
Length of Day
11h 56m
Full, 100% of the Moon is Illuminated
Mar 16
Full
Mar 16
Full
Mar 23
Last Quarter
Mar 30
New
Apr 7
First Quarter

Hourly Weather History & Observations

Time (CDT) Temp. Windchill Dew Point Humidity Pressure Visibility Wind Dir Wind Speed Gust Speed Precip Events Conditions
12:14 AM -5.8 °F -21.2 °F -14.8 °F 65% 30.39 in 10.0 mi NNW 8.1 mph - N/A   Clear
12:33 AM -5.8 °F -14.5 °F -14.8 °F 65% 30.39 in 10.0 mi NNW 3.5 mph - N/A   Clear
12:53 AM -5.8 °F - -14.8 °F 65% 30.39 in 10.0 mi Calm Calm - N/A   Scattered Clouds
1:14 AM -5.8 °F -14.5 °F -14.8 °F 65% 30.40 in 10.0 mi NNW 3.5 mph - N/A   Scattered Clouds
1:33 AM -7.6 °F -20.6 °F -14.8 °F 71% 30.40 in 10.0 mi NNW 5.8 mph - N/A   Scattered Clouds
1:53 AM -9.4 °F -18.6 °F -16.6 °F 71% 30.40 in 10.0 mi NNW 3.5 mph - N/A   Clear
2:14 AM -11.2 °F -24.8 °F -16.6 °F 77% 30.40 in 10.0 mi NNW 5.8 mph - N/A   Clear
2:33 AM -11.2 °F -24.8 °F -18.4 °F 70% 30.41 in 10.0 mi North 5.8 mph - N/A   Clear
2:54 AM -11.2 °F -20.6 °F -18.4 °F 70% 30.41 in 10.0 mi NNW 3.5 mph - N/A   Clear
3:13 AM -9.4 °F - -16.6 °F 71% 30.41 in 10.0 mi Calm Calm - N/A   Scattered Clouds
3:33 AM -7.6 °F - -14.8 °F 71% 30.41 in 10.0 mi Calm Calm - N/A   Scattered Clouds
3:54 AM -11.2 °F - -18.4 °F 70% 30.41 in 10.0 mi Calm Calm - N/A   Scattered Clouds
4:13 AM -14.8 °F - -20.2 °F 77% 30.41 in 10.0 mi Calm Calm - N/A   Scattered Clouds
4:33 AM -11.2 °F - -16.6 °F 77% 30.41 in 10.0 mi Calm Calm - N/A   Clear
4:54 AM -14.8 °F - -20.2 °F 77% 30.41 in 10.0 mi Calm Calm - N/A   Clear
5:14 AM -16.6 °F -26.8 °F -23.8 °F 70% 30.41 in 10.0 mi West 3.5 mph - N/A   Clear
5:33 AM -18.4 °F - -23.8 °F 76% 30.41 in 10.0 mi Calm Calm - N/A   Clear
5:53 AM -16.6 °F -26.8 °F -23.8 °F 70% 30.41 in 10.0 mi West 3.5 mph - N/A   Scattered Clouds
6:14 AM -18.4 °F -31.4 °F -25.6 °F 70% 30.40 in 10.0 mi West 4.6 mph - N/A   Scattered Clouds
6:33 AM -20.2 °F -35.5 °F -29.2 °F 63% 30.40 in 10.0 mi West 5.8 mph - N/A   Clear
6:54 AM -23.8 °F -37.7 °F -31.0 °F 69% 30.40 in 10.0 mi West 4.6 mph - N/A   Clear
7:14 AM -23.8 °F -37.7 °F -31.0 °F 69% 30.40 in 10.0 mi WNW 4.6 mph - N/A   Scattered Clouds
7:33 AM -22.0 °F -35.6 °F -31.0 °F 63% 30.39 in 10.0 mi WNW 4.6 mph - N/A   Clear
7:53 AM -20.2 °F - -29.2 °F 63% 30.39 in 10.0 mi Calm Calm - N/A   Clear
8:14 AM -16.6 °F -26.8 °F -23.8 °F 70% 30.39 in 10.0 mi WNW 3.5 mph - N/A   Clear
8:33 AM -11.2 °F -23.0 °F -20.2 °F 64% 30.39 in 10.0 mi WNW 4.6 mph - N/A   Clear
8:53 AM -2.2 °F - -13.0 °F 60% 30.39 in 10.0 mi Calm Calm - N/A   Clear
9:14 AM 1.4 °F - -13.0 °F 51% 30.38 in 10.0 mi Calm Calm - N/A   Clear
9:33 AM 5.0 °F - -11.2 °F 47% 30.38 in 10.0 mi Calm Calm - N/A   Clear
9:54 AM 6.8 °F -2.0 °F -11.2 °F 44% 30.37 in 10.0 mi SSW 4.6 mph - N/A   Clear
10:13 AM 6.8 °F -4.8 °F -9.4 °F 48% 30.37 in 10.0 mi SSW 6.9 mph - N/A   Clear
10:33 AM 8.6 °F -1.3 °F -9.4 °F 44% 30.36 in 10.0 mi SSW 5.8 mph - N/A   Clear
10:54 AM - - - N/A% 30.35 in 10.0 mi SSW 5.8 mph - N/A   Clear
11:13 AM 12.2 °F 4.3 °F -7.6 °F 41% 30.35 in 10.0 mi SW 4.6 mph - N/A   Clear
11:34 AM 12.2 °F 2.9 °F -7.6 °F 41% 30.34 in 10.0 mi SSW 5.8 mph - N/A   Clear
11:53 AM 15.8 °F 8.6 °F -7.6 °F 35% 30.33 in 10.0 mi SW 4.6 mph - N/A   Clear
12:14 PM 15.8 °F 8.6 °F -7.6 °F 35% 30.32 in 10.0 mi SW 4.6 mph - N/A   Clear
12:33 PM 15.8 °F 6.1 °F -7.6 °F 35% 30.31 in 10.0 mi South 6.9 mph - N/A   Clear
12:53 PM 15.8 °F 6.1 °F -0.4 °F 49% 30.30 in 10.0 mi SSE 6.9 mph - N/A   Clear
1:14 PM 15.8 °F 5.1 °F -0.4 °F 49% 30.28 in 10.0 mi South 8.1 mph - N/A   Clear
1:33 PM 15.8 °F 5.1 °F -0.4 °F 49% 30.26 in 10.0 mi SSE 8.1 mph - N/A   Clear
1:54 PM 15.8 °F 4.2 °F 1.4 °F 53% 30.25 in 10.0 mi South 9.2 mph - N/A   Clear
2:13 PM 15.8 °F 6.1 °F 1.4 °F 53% 30.24 in 10.0 mi South 6.9 mph - N/A   Clear
2:33 PM 15.8 °F 4.2 °F 1.4 °F 53% 30.23 in 10.0 mi South 9.2 mph - N/A   Clear
2:54 PM 15.8 °F 5.1 °F 1.4 °F 53% 30.22 in 10.0 mi SSE 8.1 mph - N/A   Clear
3:13 PM 15.8 °F 3.4 °F 1.4 °F 53% 30.22 in 10.0 mi South 10.4 mph - N/A   Clear
3:33 PM 15.8 °F 5.1 °F 1.4 °F 53% 30.21 in 10.0 mi South 8.1 mph - N/A   Clear
3:54 PM 14.0 °F 3.9 °F 1.4 °F 57% 30.20 in 10.0 mi South 6.9 mph - N/A   Clear
4:14 PM 14.0 °F 2.9 °F 3.2 °F 62% 30.20 in 10.0 mi SSE 8.1 mph - N/A Snow Light Snow
4:33 PM 12.2 °F 0.7 °F 3.2 °F 67% 30.19 in 7.0 mi South 8.1 mph - N/A   Scattered Clouds
4:54 PM 14.0 °F 3.9 °F 1.4 °F 57% 30.18 in 10.0 mi South 6.9 mph - N/A   Clear
5:14 PM 12.2 °F 1.7 °F 1.4 °F 62% 30.17 in 10.0 mi South 6.9 mph - N/A   Clear
5:33 PM 12.2 °F 1.7 °F -0.4 °F 57% 30.16 in 10.0 mi SSW 6.9 mph - N/A   Clear
5:53 PM 12.2 °F 2.9 °F -0.4 °F 57% 30.15 in 10.0 mi South 5.8 mph - N/A   Clear
6:14 PM 10.4 °F -0.4 °F 1.4 °F 67% 30.14 in 10.0 mi South 6.9 mph - N/A   Clear
6:33 PM 8.6 °F -1.3 °F 1.4 °F 73% 30.13 in 10.0 mi South 5.8 mph - N/A   Clear
6:54 PM 8.6 °F 2.0 °F 1.4 °F 73% 30.11 in 10.0 mi SE 3.5 mph - N/A   Clear
7:13 PM 6.8 °F - 1.4 °F 79% 30.09 in 10.0 mi Calm Calm - N/A   Clear
7:34 PM 6.8 °F - 1.4 °F 79% 30.07 in 10.0 mi Calm Calm - N/A   Clear
7:53 PM 6.8 °F - 1.4 °F 79% 30.07 in 10.0 mi Calm Calm - N/A   Scattered Clouds
8:14 PM 6.8 °F -0.1 °F 1.4 °F 79% 30.06 in 10.0 mi SSE 3.5 mph - N/A   Clear
8:33 PM 6.8 °F -0.1 °F 1.4 °F 79% 30.05 in 10.0 mi SE 3.5 mph - N/A   Clear
8:53 PM 6.8 °F -2.0 °F 1.4 °F 79% 30.03 in 10.0 mi SE 4.6 mph - N/A   Scattered Clouds
9:14 PM 6.8 °F - 1.4 °F 79% 30.02 in 10.0 mi Calm Calm - N/A   Scattered Clouds
9:33 PM 6.8 °F -0.1 °F 1.4 °F 79% 30.01 in 10.0 mi SE 3.5 mph - N/A   Mostly Cloudy
9:53 PM 6.8 °F -0.1 °F 1.4 °F 79% 30.00 in 10.0 mi SSE 3.5 mph - N/A   Scattered Clouds
10:13 PM 6.8 °F - 1.4 °F 79% 29.99 in 10.0 mi Calm Calm - N/A   Scattered Clouds
10:33 PM 6.8 °F -0.1 °F 1.4 °F 79% 29.98 in 10.0 mi SE 3.5 mph - N/A   Scattered Clouds
10:53 PM 6.8 °F -2.0 °F 3.2 °F 85% 29.97 in 2.5 mi SE 4.6 mph - N/A Snow Light Snow
11:13 PM 6.8 °F -0.1 °F 3.2 °F 85% 29.96 in 5.0 mi SE 3.5 mph - N/A Snow Light Snow
11:34 PM 6.8 °F -0.1 °F 3.2 °F 85% 29.95 in 10.0 mi SSE 3.5 mph - N/A   Scattered Clouds
11:53 PM 6.8 °F - 3.2 °F 85% 29.94 in 10.0 mi Calm Calm - N/A   Mostly Cloudy